M I D A S
Marine Information and Data Acquisition System
Tripno 1709 of the Zeeleeuw from 2009-06-15 06:11:10 to 2009-06-15 16:47:28
Back to CruiseResearch ActivitiesStationsMapUnderway DataData graphs

EquipmentUnitsComments
TimeDGPSUTC
LatitudeDGPSDM.mWGS84
LongitudeDGPSDM.mWGS84
SpeedMeteo Stationm/sRelative wind speed
DirectionMeteo StationdegRelative wind direction
TemperatureMeteo Stationdeg CelciusAir temperature
PressureMeteo StationPaAtmospheric pressure
HumidityMeteo Station%Relative humidity
Missing or incorrect values are displayed as -999
Metereological data collected by the RV Zeeleeuw from 2009-06-15 06:13:37 to 2009-06-15 16:59:58
                                                                                    Next 1000 lines
Time Latitude Longitude Speed Direction Temperature Pressure Humidity
2009-06-15 06:13:47 51°13.662 2°55.955 1.2 336 15.8 101580 91
2009-06-15 06:13:52 51°13.662 2°55.952 1.2 282 15.8 101580 91
2009-06-15 06:13:57 51°13.663 2°55.948 0.7 340 15.8 101580 91
2009-06-15 06:14:02 51°13.665 2°55.944 0.2 281 15.8 101580 91
2009-06-15 06:14:08 51°13.666 2°55.938 0.1 343 15.8 101580 91
2009-06-15 06:14:14 51°13.668 2°55.932 0.5 282 15.8 101580 91
2009-06-15 06:14:19 51°13.669 2°55.926 0.7 250 15.8 101580 91
2009-06-15 06:14:25 51°13.671 2°55.919 0.9 277 15.8 101580 91
2009-06-15 06:14:31 51°13.673 2°55.911 1.4 258 15.8 101580 91
2009-06-15 06:14:36 51°13.674 2°55.904 1.4 257 15.8 101570 91
2009-06-15 06:14:41 51°13.676 2°55.898 0.9 247 15.8 101570 91
2009-06-15 06:14:46 51°13.677 2°55.891 1.1 286 15.8 101580 91
2009-06-15 06:14:51 51°13.679 2°55.884 1.1 236 15.8 101580 91
2009-06-15 06:14:56 51°13.68 2°55.876 1.1 280 15.8 101580 91
2009-06-15 06:15:01 51°13.681 2°55.869 1.2 237 15.8 101580 91
2009-06-15 06:15:05 51°13.683 2°55.863 1.2 286 15.8 101570 91
2009-06-15 06:15:11 51°13.684 2°55.854 1.2 240 15.8 101570 91
2009-06-15 06:15:16 51°13.686 2°55.846 1.1 286 15.8 101570 91
2009-06-15 06:15:21 51°13.687 2°55.838 1.3 241 15.8 101570 91
2009-06-15 06:15:25 51°13.689 2°55.833 0.9 281 15.8 101570 91
2009-06-15 06:15:31 51°13.691 2°55.824 1 235 15.8 101570 91
2009-06-15 06:15:36 51°13.692 2°55.818 1.3 24 15.9 101570 91
2009-06-15 06:15:41 51°13.694 2°55.811 1.2 236 15.9 101570 91
2009-06-15 06:15:45 51°13.696 2°55.806 1.7 285 15.9 101570 91
2009-06-15 06:15:50 51°13.698 2°55.799 1.4 240 15.9 101570 91
2009-06-15 06:15:55 51°13.701 2°55.793 1.3 278 15.9 101570 91
2009-06-15 06:16:01 51°13.704 2°55.785 1.3 246 15.9 101570 91
2009-06-15 06:16:06 51°13.707 2°55.778 1.8 281 15.9 101560 91
2009-06-15 06:16:10 51°13.71 2°55.772 1.4 258 15.9 101560 91
2009-06-15 06:16:16 51°13.714 2°55.764 1.3 280 15.9 101560 91
2009-06-15 06:16:21 51°13.718 2°55.757 1.3 262 15.9 101560 91
2009-06-15 06:16:26 51°13.721 2°55.75 1.3 280 15.9 101560 91
2009-06-15 06:16:30 51°13.724 2°55.744 1.3 264 15.9 101560 91
2009-06-15 06:16:36 51°13.729 2°55.736 1.3 264 15.9 101560 91
2009-06-15 06:16:41 51°13.733 2°55.728 2.2 255 15.9 101560 91
2009-06-15 06:16:46 51°13.737 2°55.722 2.6 281 15.9 101560 91
2009-06-15 06:16:51 51°13.742 2°55.715 2.8 256 15.9 101560 91
2009-06-15 06:16:56 51°13.746 2°55.709 2.2 283 15.9 101560 91
2009-06-15 06:17:01 51°13.751 2°55.704 2.6 255 15.9 101560 91
2009-06-15 06:17:06 51°13.755 2°55.699 1.9 286 15.9 101560 91
2009-06-15 06:17:11 51°13.759 2°55.696 2.3 244 15.9 101560 91
2009-06-15 06:17:16 51°13.762 2°55.692 2.3 280 15.9 101550 91
2009-06-15 06:17:21 51°13.765 2°55.69 2.4 244 15.9 101550 91
2009-06-15 06:17:25 51°13.766 2°55.688 2.2 278 15.9 101550 91
2009-06-15 06:17:30 51°13.769 2°55.686 2.3 251 15.9 101550 91
2009-06-15 06:17:35 51°13.772 2°55.684 1.3 27 15.8 101550 91
2009-06-15 06:17:40 51°13.775 2°55.681 2.2 257 15.8 101550 91
2009-06-15 06:17:45 51°13.778 2°55.679 0.9 277 15.9 101550 91
2009-06-15 06:17:50 51°13.782 2°55.676 2.1 254 15.9 101550 91
2009-06-15 06:17:56 51°13.786 2°55.674 3.1 279 15.9 101550 91
2009-06-15 06:18:01 51°13.789 2°55.672 3 260 15.9 101550 91
2009-06-15 06:18:05 51°13.791 2°55.671 2.3 278 15.9 101550 91
2009-06-15 06:18:10 51°13.792 2°55.67 2.6 251 15.9 101550 91
2009-06-15 06:18:16 51°13.794 2°55.669 3 280 15.9 101550 91
2009-06-15 06:18:21 51°13.796 2°55.667 3.6 249 15.9 101550 91
2009-06-15 06:18:26 51°13.797 2°55.666 3.1 279 15.9 101550 91
2009-06-15 06:18:30 51°13.799 2°55.665 3.1 250 15.9 101550 91
2009-06-15 06:18:36 51°13.802 2°55.663 3.8 252 15.9 101550 91
2009-06-15 06:18:41 51°13.805 2°55.662 3.2 250 15.9 101550 91
2009-06-15 06:18:45 51°13.807 2°55.661 3.6 278 15.9 101550 91
2009-06-15 06:18:50 51°13.811 2°55.659 3.5 253 15.9 101550 91
2009-06-15 06:18:55 51°13.815 2°55.657 3.4 282 15.8 101550 91
2009-06-15 06:19:01 51°13.82 2°55.655 3.1 255 15.8 101550 91
2009-06-15 06:19:06 51°13.825 2°55.653 2.9 280 15.9 101550 91
2009-06-15 06:19:11 51°13.829 2°55.651 2 265 15.9 101550 91
2009-06-15 06:19:16 51°13.834 2°55.65 2.3 285 15.8 101550 90
2009-06-15 06:19:21 51°13.84 2°55.648 2.4 261 15.8 101550 90
2009-06-15 06:19:26 51°13.845 2°55.646 1.9 286 15.8 101550 91
2009-06-15 06:19:31 51°13.851 2°55.644 2.2 258 15.8 101550 91
2009-06-15 06:19:36 51°13.856 2°55.643 3.9 256 15.8 101550 90
2009-06-15 06:19:41 51°13.862 2°55.641 1.9 262 15.8 101550 90
2009-06-15 06:19:45 51°13.866 2°55.641 2.7 279 15.8 101550 90
2009-06-15 06:19:51 51°13.873 2°55.639 2 261 15.8 101550 90
2009-06-15 06:19:56 51°13.878 2°55.639 1.9 77 15.8 101550 90
2009-06-15 06:20:01 51°13.884 2°55.638 1.3 263 15.8 101550 90
2009-06-15 06:20:05 51°13.887 2°55.638 1.2 81 15.8 101550 90
2009-06-15 06:20:10 51°13.893 2°55.638 1.8 31 15.8 101550 90
2009-06-15 06:20:16 51°13.898 2°55.638 1.9 278 15.8 101550 91
2009-06-15 06:20:21 51°13.903 2°55.638 2.4 270 15.8 101550 91
2009-06-15 06:20:26 51°13.908 2°55.638 2.6 76 15.8 101550 90
2009-06-15 06:20:30 51°13.911 2°55.639 2.2 270 15.8 101550 90
2009-06-15 06:20:36 51°13.916 2°55.64 2.3 27 15.8 101550 90
2009-06-15 06:20:41 51°13.92 2°55.641 2.4 267 15.8 101550 90
2009-06-15 06:20:46 51°13.924 2°55.643 1.8 279 15.8 101550 91
2009-06-15 06:20:50 51°13.927 2°55.644 2.2 264 15.8 101550 91
2009-06-15 06:20:56 51°13.932 2°55.645 2.2 284 15.8 101550 91
2009-06-15 06:21:01 51°13.935 2°55.647 2.7 38 15.8 101550 91
2009-06-15 06:21:06 51°13.937 2°55.647 2 285 15.8 101550 91
2009-06-15 06:21:10 51°13.939 2°55.648 2.4 269 15.8 101550 91
2009-06-15 06:21:15 51°13.941 2°55.648 3.4 271 15.8 101550 91
2009-06-15 06:21:20 51°13.942 2°55.649 2.8 268 15.8 101550 91
2009-06-15 06:21:25 51°13.943 2°55.649 2.8 285 15.8 101550 91
2009-06-15 06:21:30 51°13.943 2°55.648 2.7 41 15.8 101550 91
2009-06-15 06:21:34 51°13.944 2°55.648 2.6 29 15.8 101550 91
2009-06-15 06:21:39 51°13.944 2°55.648 2.6 30 15.8 101550 91
2009-06-15 06:21:44 51°13.944 2°55.647 2.8 76 15.8 101550 91
2009-06-15 06:21:49 51°13.944 2°55.646 2 35 15.8 101550 91
2009-06-15 06:21:54 51°13.944 2°55.644 2.4 82 15.8 101550 91
2009-06-15 06:21:59 51°13.944 2°55.642 2.3 34 15.8 101550 91
2009-06-15 06:22:03 51°13.944 2°55.64 1.8 285 15.7 101550 91
2009-06-15 06:22:09 51°13.944 2°55.637 1.9 269 15.7 101550 91
2009-06-15 06:22:13 51°13.944 2°55.634 1.9 286 15.8 101550 91
2009-06-15 06:22:18 51°13.944 2°55.631 1.9 35 15.8 101550 91
2009-06-15 06:22:23 51°13.945 2°55.626 2.2 75 15.7 101550 91
2009-06-15 06:22:28 51°13.946 2°55.622 1.8 34 15.7 101550 91
2009-06-15 06:22:33 51°13.947 2°55.617 1.5 20 15.7 101550 91
2009-06-15 06:22:38 51°13.948 2°55.611 1.7 40 15.7 101550 91
2009-06-15 06:22:42 51°13.95 2°55.607 1 80 15.7 101550 91
2009-06-15 06:22:47 51°13.952 2°55.602 0.9 38 15.7 101550 91
2009-06-15 06:22:52 51°13.955 2°55.596 0.8 75 15.7 101550 91
2009-06-15 06:22:57 51°13.958 2°55.591 0.6 40 15.7 101550 91
2009-06-15 06:23:02 51°13.961 2°55.585 0.7 73 15.7 101550 91
2009-06-15 06:23:07 51°13.965 2°55.579 1.5 355 15.7 101550 91
2009-06-15 06:23:12 51°13.969 2°55.573 1.2 360 15.7 101560 91
2009-06-15 06:23:17 51°13.974 2°55.567 1 360 15.7 101560 91
2009-06-15 06:23:22 51°13.979 2°55.56 1.3 2 15.7 101560 91
2009-06-15 06:23:27 51°13.985 2°55.553 1.5 2 15.7 101560 91
2009-06-15 06:23:32 51°13.992 2°55.546 1.8 1 15.7 101550 91
2009-06-15 06:23:37 51°13.999 2°55.538 1.8 355 15.7 101550 91
2009-06-15 06:23:42 51°14.007 2°55.53 1.6 357 15.7 101560 92
2009-06-15 06:23:47 51°14.015 2°55.522 1.9 359 15.7 101560 92
2009-06-15 06:23:52 51°14.023 2°55.513 2.1 353 15.7 101560 92
2009-06-15 06:23:57 51°14.031 2°55.504 1.7 348 15.7 101560 92
2009-06-15 06:24:02 51°14.04 2°55.495 2.4 353 15.7 101550 92
2009-06-15 06:24:07 51°14.05 2°55.486 2.4 352 15.7 101550 92
2009-06-15 06:24:12 51°14.059 2°55.477 2.3 348 15.7 101550 92
2009-06-15 06:24:17 51°14.069 2°55.468 2.4 352 15.7 101550 92
2009-06-15 06:24:22 51°14.079 2°55.459 2.1 355 15.7 101550 92
2009-06-15 06:24:27 51°14.09 2°55.449 1.7 349 15.7 101550 92
2009-06-15 06:24:32 51°14.1 2°55.439 1.8 347 15.7 101550 91
2009-06-15 06:24:37 51°14.111 2°55.429 1.9 346 15.7 101550 91
2009-06-15 06:24:42 51°14.122 2°55.419 2.7 283 15.7 101550 92
2009-06-15 06:24:47 51°14.133 2°55.408 2.9 342 15.7 101550 92
2009-06-15 06:24:52 51°14.144 2°55.397 2.5 278 15.7 101550 92
2009-06-15 06:24:57 51°14.155 2°55.386 2.5 348 15.7 101550 92
2009-06-15 06:25:02 51°14.166 2°55.375 1.6 350 15.7 101550 92
2009-06-15 06:25:07 51°14.177 2°55.363 1.7 349 15.7 101550 92
2009-06-15 06:25:12 51°14.188 2°55.351 1.5 282 15.7 101550 92
2009-06-15 06:25:17 51°14.199 2°55.338 1.3 343 15.7 101550 92
2009-06-15 06:25:22 51°14.211 2°55.325 1.9 280 15.7 101550 92
2009-06-15 06:25:27 51°14.222 2°55.312 1.8 340 15.7 101550 92
2009-06-15 06:25:32 51°14.232 2°55.297 1.8 338 15.6 101550 91
2009-06-15 06:25:37 51°14.243 2°55.282 1.7 335 15.6 101550 91
2009-06-15 06:25:42 51°14.253 2°55.266 2 281 15.6 101550 91
2009-06-15 06:25:47 51°14.263 2°55.249 2.3 335 15.6 101550 91
2009-06-15 06:25:52 51°14.274 2°55.233 2.5 280 15.6 101550 91
2009-06-15 06:25:57 51°14.284 2°55.215 1.9 328 15.6 101550 91
2009-06-15 06:26:02 51°14.294 2°55.197 2.6 283 15.6 101550 91
2009-06-15 06:26:07 51°14.304 2°55.179 2.4 329 15.6 101550 91
2009-06-15 06:26:12 51°14.314 2°55.162 1.9 278 15.6 101550 92
2009-06-15 06:26:17 51°14.326 2°55.146 1.9 330 15.6 101550 92
2009-06-15 06:26:22 51°14.337 2°55.128 2.2 281 15.6 101550 92
2009-06-15 06:26:27 51°14.348 2°55.111 2.8 331 15.6 101550 92
2009-06-15 06:26:32 51°14.36 2°55.094 2.6 334 15.6 101550 92
2009-06-15 06:26:37 51°14.371 2°55.077 3.1 333 15.6 101550 92
2009-06-15 06:26:42 51°14.383 2°55.061 2.9 286 15.6 101550 92
2009-06-15 06:26:47 51°14.396 2°55.045 3.1 337 15.6 101550 92
2009-06-15 06:26:52 51°14.409 2°55.03 3.3 279 15.6 101550 92
2009-06-15 06:26:57 51°14.422 2°55.015 3.7 341 15.6 101550 92
2009-06-15 06:27:02 51°14.436 2°54.999 3.6 280 15.6 101560 92
2009-06-15 06:27:07 51°14.448 2°54.984 3.1 340 15.6 101560 92
2009-06-15 06:27:12 51°14.462 2°54.968 3.3 279 15.6 101550 92
2009-06-15 06:27:17 51°14.475 2°54.952 3 341 15.6 101550 92
2009-06-15 06:27:22 51°14.488 2°54.936 3.2 281 15.6 101560 92
2009-06-15 06:27:27 51°14.501 2°54.92 3.1 343 15.6 101560 92
2009-06-15 06:27:32 51°14.514 2°54.904 3.2 341 15.6 101550 92
2009-06-15 06:27:37 51°14.528 2°54.889 3.6 344 15.6 101550 92
2009-06-15 06:27:42 51°14.542 2°54.874 3.6 279 15.6 101550 92
2009-06-15 06:27:47 51°14.556 2°54.86 3.8 344 15.6 101550 92
2009-06-15 06:27:52 51°14.569 2°54.844 3.1 347 15.6 101560 92
2009-06-15 06:27:57 51°14.583 2°54.829 3.3 347 15.6 101560 92
2009-06-15 06:28:02 51°14.596 2°54.814 3.6 278 15.6 101550 92
2009-06-15 06:28:07 51°14.609 2°54.798 3.3 351 15.6 101550 92
2009-06-15 06:28:12 51°14.622 2°54.783 3.3 278 15.6 101550 92
2009-06-15 06:28:17 51°14.636 2°54.768 3.1 352 15.6 101550 92
2009-06-15 06:28:22 51°14.649 2°54.753 3 277 15.6 101550 92
2009-06-15 06:28:27 51°14.663 2°54.737 3.4 352 15.6 101550 92
2009-06-15 06:28:32 51°14.676 2°54.722 3.2 352 15.6 101550 92
2009-06-15 06:28:37 51°14.69 2°54.707 3.5 354 15.6 101550 92
2009-06-15 06:28:42 51°14.703 2°54.692 3.6 350 15.6 101540 92
2009-06-15 06:28:47 51°14.717 2°54.677 2.8 352 15.6 101540 92
2009-06-15 06:28:52 51°14.73 2°54.661 3.2 351 15.5 101550 91
2009-06-15 06:28:57 51°14.744 2°54.646 3.5 348 15.5 101550 91
2009-06-15 06:29:02 51°14.757 2°54.63 3.8 349 15.5 101540 91
2009-06-15 06:29:07 51°14.77 2°54.615 3.8 349 15.5 101540 91
2009-06-15 06:29:12 51°14.783 2°54.599 3.6 352 15.5 101540 91
2009-06-15 06:29:17 51°14.796 2°54.584 3.6 351 15.5 101540 91
2009-06-15 06:29:22 51°14.81 2°54.568 3.9 351 15.5 101540 91
2009-06-15 06:29:27 51°14.823 2°54.553 3.6 354 15.5 101540 91
2009-06-15 06:29:32 51°14.837 2°54.539 4.2 354 15.5 101540 91
2009-06-15 06:29:37 51°14.851 2°54.524 3.8 356 15.5 101540 91
2009-06-15 06:29:42 51°14.865 2°54.51 4.1 357 15.5 101540 92
2009-06-15 06:29:47 51°14.879 2°54.495 4.3 358 15.5 101540 92
2009-06-15 06:29:52 51°14.893 2°54.48 4.1 355 15.5 101530 92
2009-06-15 06:29:57 51°14.907 2°54.465 4 356 15.5 101530 92
2009-06-15 06:30:02 51°14.921 2°54.45 4.3 357 15.6 101530 92
2009-06-15 06:30:07 51°14.935 2°54.435 4.1 359 15.6 101530 92
2009-06-15 06:30:12 51°14.949 2°54.42 3.9 358 15.6 101530 92
2009-06-15 06:30:17 51°14.963 2°54.405 3.9 359 15.6 101530 92
2009-06-15 06:30:22 51°14.976 2°54.39 3.7 359 15.6 101520 92
2009-06-15 06:30:27 51°14.99 2°54.375 4.1 358 15.6 101520 92
2009-06-15 06:30:32 51°15.003 2°54.359 3.4 357 15.5 101520 92
2009-06-15 06:30:37 51°15.016 2°54.344 3.6 358 15.5 101520 92
2009-06-15 06:30:41 51°15.027 2°54.331 2.6 360 15.5 101520 92
2009-06-15 06:30:47 51°15.041 2°54.31 2.7 1 15.5 101520 92
2009-06-15 06:30:52 51°15.053 2°54.291 2.4 359 15.5 101520 92
2009-06-15 06:30:57 51°15.063 2°54.272 2.4 358 15.5 101520 92
2009-06-15 06:31:02 51°15.073 2°54.252 2.1 355 15.5 101520 92
2009-06-15 06:31:06 51°15.081 2°54.236 1.7 357 15.5 101520 92
2009-06-15 06:31:12 51°15.092 2°54.211 1.7 281 15.5 101520 92
2009-06-15 06:31:17 51°15.099 2°54.189 1.7 345 15.5 101520 92
2009-06-15 06:31:22 51°15.107 2°54.166 1.6 286 15.5 101520 92
2009-06-15 06:31:26 51°15.112 2°54.148 1.2 334 15.5 101520 92
2009-06-15 06:31:32 51°15.119 2°54.12 1.2 331 15.5 101520 92
2009-06-15 06:31:37 51°15.124 2°54.095 1.7 324 15.5 101520 92
2009-06-15 06:31:42 51°15.128 2°54.071 2 285 15.5 101520 92
2009-06-15 06:31:47 51°15.132 2°54.046 1.9 32 15.5 101520 92
2009-06-15 06:31:51 51°15.135 2°54.027 2.1 278 15.5 101520 92
2009-06-15 06:31:57 51°15.138 2°53.997 1.8 30 15.5 101520 92
2009-06-15 06:32:02 51°15.14 2°53.972 1.8 287 15.4 101520 92
2009-06-15 06:32:07 51°15.141 2°53.946 2.2 234 15.4 101520 92
2009-06-15 06:32:12 51°15.143 2°53.921 2.1 278 15.4 101520 92
2009-06-15 06:32:17 51°15.144 2°53.896 2 37 15.4 101520 92
2009-06-15 06:32:22 51°15.144 2°53.87 2.6 279 15.4 101520 92
2009-06-15 06:32:27 51°15.145 2°53.845 2.4 34 15.4 101520 92
2009-06-15 06:32:32 51°15.145 2°53.82 2.2 25 15.4 101510 92
2009-06-15 06:32:37 51°15.146 2°53.794 1.6 39 15.4 101510 92
2009-06-15 06:32:42 51°15.147 2°53.769 2.8 280 15.4 101520 92
2009-06-15 06:32:46 51°15.148 2°53.748 2.3 38 15.4 101520 92
2009-06-15 06:32:52 51°15.15 2°53.718 2.7 280 15.4 101520 92
2009-06-15 06:32:57 51°15.151 2°53.692 1.8 37 15.4 101520 92
2009-06-15 06:33:02 51°15.155 2°53.667 2.3 285 15.4 101520 92
2009-06-15 06:33:07 51°15.157 2°53.642 2.3 34 15.4 101520 92
2009-06-15 06:33:12 51°15.16 2°53.616 2.1 287 15.4 101520 92
2009-06-15 06:33:17 51°15.162 2°53.591 1.7 31 15.4 101520 92
2009-06-15 06:33:22 51°15.165 2°53.566 1.4 277 15.4 101520 92
2009-06-15 06:33:27 51°15.168 2°53.541 1.6 32 15.4 101520 92
2009-06-15 06:33:32 51°15.171 2°53.515 2 25 15.5 101520 92
2009-06-15 06:33:37 51°15.174 2°53.49 1.4 41 15.5 101520 92
2009-06-15 06:33:42 51°15.178 2°53.465 2 283 15.5 101530 92
2009-06-15 06:33:46 51°15.18 2°53.445 2 321 15.5 101530 92
2009-06-15 06:33:52 51°15.184 2°53.415 1.7 283 15.5 101520 92
2009-06-15 06:33:57 51°15.187 2°53.39 2.3 37 15.5 101520 92
2009-06-15 06:34:02 51°15.191 2°53.366 2.2 287 15.5 101530 92
2009-06-15 06:34:07 51°15.194 2°53.341 1.7 316 15.5 101530 92
2009-06-15 06:34:12 51°15.197 2°53.316 1.9 282 15.5 101530 92
2009-06-15 06:34:17 51°15.201 2°53.291 1.8 315 15.5 101530 92
2009-06-15 06:34:22 51°15.204 2°53.266 1.7 286 15.5 101530 92
2009-06-15 06:34:27 51°15.208 2°53.242 1.5 317 15.5 101530 92
2009-06-15 06:34:32 51°15.212 2°53.217 1.4 317 15.5 101530 92
2009-06-15 06:34:37 51°15.216 2°53.192 1.7 320 15.5 101530 92
2009-06-15 06:34:42 51°15.22 2°53.168 1.3 286 15.5 101530 92
2009-06-15 06:34:47 51°15.225 2°53.143 1.3 326 15.5 101530 92
2009-06-15 06:34:52 51°15.229 2°53.119 1.9 286 15.5 101520 92
2009-06-15 06:34:57 51°15.233 2°53.094 2.3 321 15.5 101520 92
2009-06-15 06:35:02 51°15.237 2°53.069 1.9 285 15.5 101530 92
2009-06-15 06:35:07 51°15.241 2°53.045 1.9 322 15.5 101530 92
2009-06-15 06:35:12 51°15.245 2°53.02 2 281 15.5 101530 92
2009-06-15 06:35:17 51°15.248 2°52.995 1.4 317 15.5 101530 92
2009-06-15 06:35:22 51°15.252 2°52.971 1.5 281 15.5 101530 92
2009-06-15 06:35:26 51°15.255 2°52.951 1.6 319 15.5 101530 92
2009-06-15 06:35:32 51°15.259 2°52.921 1.9 320 15.5 101530 92
2009-06-15 06:35:37 51°15.263 2°52.897 1.3 320 15.5 101530 92
2009-06-15 06:35:42 51°15.267 2°52.872 1.3 276 15.6 101530 92
2009-06-15 06:35:47 51°15.27 2°52.847 1.7 323 15.6 101530 92
2009-06-15 06:35:52 51°15.274 2°52.823 1.7 278 15.6 101530 92
2009-06-15 06:35:57 51°15.278 2°52.798 1.6 323 15.6 101530 92
2009-06-15 06:36:02 51°15.281 2°52.773 2.1 281 15.5 101530 92
2009-06-15 06:36:07 51°15.285 2°52.749 1.7 326 15.5 101530 92
2009-06-15 06:36:12 51°15.289 2°52.724 1.8 279 15.5 101530 92
2009-06-15 06:36:17 51°15.293 2°52.7 1.5 323 15.5 101530 92
2009-06-15 06:36:22 51°15.297 2°52.675 1.5 287 15.5 101520 92
2009-06-15 06:36:26 51°15.3 2°52.655 1.6 325 15.5 101520 92
2009-06-15 06:36:32 51°15.304 2°52.626 1.6 324 15.6 101530 92
2009-06-15 06:36:37 51°15.309 2°52.601 1.5 324 15.6 101530 92
2009-06-15 06:36:42 51°15.312 2°52.576 1.9 279 15.5 101530 92
2009-06-15 06:36:47 51°15.316 2°52.551 1.9 327 15.5 101530 92
2009-06-15 06:36:51 51°15.319 2°52.532 1.5 281 15.6 101530 92
2009-06-15 06:36:57 51°15.324 2°52.502 1.6 327 15.6 101530 92
2009-06-15 06:37:02 51°15.328 2°52.478 1.3 286 15.6 101530 92
2009-06-15 06:37:07 51°15.332 2°52.453 1.3 327 15.6 101530 92
2009-06-15 06:37:12 51°15.336 2°52.429 1.4 279 15.6 101530 92
2009-06-15 06:37:17 51°15.341 2°52.404 1.5 329 15.6 101530 92
2009-06-15 06:37:22 51°15.345 2°52.38 1.8 278 15.6 101530 92
2009-06-15 06:37:27 51°15.349 2°52.355 2.1 325 15.6 101530 92
2009-06-15 06:37:32 51°15.353 2°52.331 2.5 328 15.6 101530 92
2009-06-15 06:37:37 51°15.357 2°52.306 2.5 330 15.6 101530 92
2009-06-15 06:37:42 51°15.361 2°52.282 2.1 278 15.6 101540 92
2009-06-15 06:37:47 51°15.365 2°52.257 2.5 323 15.6 101540 92
2009-06-15 06:37:52 51°15.369 2°52.233 2.7 283 15.6 101540 92
2009-06-15 06:37:57 51°15.373 2°52.208 2.3 322 15.6 101540 92
2009-06-15 06:38:02 51°15.377 2°52.184 3 285 15.6 101540 92
2009-06-15 06:38:07 51°15.381 2°52.159 2.4 316 15.6 101540 92
2009-06-15 06:38:12 51°15.385 2°52.135 3.3 284 15.6 101540 92
2009-06-15 06:38:17 51°15.389 2°52.11 3.2 321 15.6 101540 92
2009-06-15 06:38:22 51°15.393 2°52.086 3.1 285 15.7 101550 92
2009-06-15 06:38:27 51°15.397 2°52.062 3.1 321 15.7 101550 92
2009-06-15 06:38:32 51°15.402 2°52.038 2.3 321 15.7 101540 92
2009-06-15 06:38:37 51°15.406 2°52.013 2.9 320 15.7 101540 92
2009-06-15 06:38:42 51°15.411 2°51.989 3 278 15.7 101540 92
2009-06-15 06:38:47 51°15.415 2°51.965 2.7 317 15.7 101540 92
2009-06-15 06:38:51 51°15.419 2°51.946 2.4 282 15.7 101550 92
2009-06-15 06:38:57 51°15.424 2°51.917 2.3 320 15.7 101550 92
2009-06-15 06:39:02 51°15.428 2°51.892 3.1 285 15.7 101550 92
2009-06-15 06:39:07 51°15.433 2°51.868 2.3 318 15.7 101550 92
2009-06-15 06:39:12 51°15.437 2°51.844 2.3 278 15.6 101550 92
2009-06-15 06:39:17 51°15.442 2°51.819 2.9 320 15.6 101550 92
2009-06-15 06:39:22 51°15.446 2°51.795 2.4 278 15.6 101550 88
2009-06-15 06:39:27 51°15.45 2°51.77 2.8 320 15.6 101550 88
2009-06-15 06:39:32 51°15.454 2°51.746 2.2 316 15.6 101550 88
2009-06-15 06:39:37 51°15.458 2°51.721 2.1 321 15.6 101550 88
2009-06-15 06:39:42 51°15.462 2°51.696 2.2 284 15.7 101560 88
2009-06-15 06:39:47 51°15.467 2°51.672 2.2 320 15.7 101560 88
2009-06-15 06:39:52 51°15.471 2°51.648 2.9 277 15.6 101560 88
2009-06-15 06:39:57 51°15.476 2°51.623 3.1 319 15.6 101560 88
2009-06-15 06:40:02 51°15.48 2°51.598 2.8 284 15.6 101550 88
2009-06-15 06:40:07 51°15.484 2°51.574 2.4 318 15.6 101550 88
2009-06-15 06:40:12 51°15.489 2°51.549 3.3 286 15.6 101550 87
2009-06-15 06:40:17 51°15.493 2°51.525 3.2 319 15.6 101550 87
2009-06-15 06:40:22 51°15.498 2°51.501 2.9 287 15.6 101550 87
2009-06-15 06:40:27 51°15.502 2°51.476 3.3 315 15.6 101550 87
2009-06-15 06:40:32 51°15.506 2°51.451 3.3 28 15.7 101550 87
2009-06-15 06:40:37 51°15.511 2°51.427 2.6 34 15.7 101550 87
2009-06-15 06:40:42 51°15.515 2°51.402 3.1 286 15.7 101550 87
2009-06-15 06:40:47 51°15.519 2°51.378 3.1 34 15.7 101550 87
2009-06-15 06:40:52 51°15.524 2°51.353 2.8 279 15.7 101550 87
2009-06-15 06:40:57 51°15.528 2°51.329 2.9 34 15.7 101550 87
2009-06-15 06:41:02 51°15.532 2°51.304 2.9 286 15.7 101550 87
2009-06-15 06:41:07 51°15.536 2°51.279 2.5 30 15.7 101550 87
2009-06-15 06:41:12 51°15.54 2°51.255 2.2 283 15.7 101550 87
2009-06-15 06:41:17 51°15.544 2°51.23 2.6 32 15.7 101550 87
2009-06-15 06:41:22 51°15.548 2°51.205 3.2 281 15.7 101550 87
2009-06-15 06:41:27 51°15.552 2°51.18 2.6 36 15.7 101550 87
2009-06-15 06:41:32 51°15.555 2°51.156 2.5 18 15.7 101550 88
2009-06-15 06:41:37 51°15.559 2°51.131 2.8 34 15.7 101550 88
2009-06-15 06:41:42 51°15.562 2°51.106 2.6 278 15.7 101550 89
2009-06-15 06:41:47 51°15.566 2°51.081 2.5 40 15.7 101550 89
2009-06-15 06:41:51 51°15.569 2°51.062 3.1 286 15.7 101550 89
2009-06-15 06:41:57 51°15.574 2°51.032 3 315 15.7 101550 89
2009-06-15 06:42:02 51°15.577 2°51.007 3.2 285 15.7 101550 89
2009-06-15 06:42:07 51°15.581 2°50.982 2.8 37 15.7 101550 89
2009-06-15 06:42:12 51°15.585 2°50.958 2.9 280 15.7 101550 90
2009-06-15 06:42:17 51°15.589 2°50.933 2.8 316 15.7 101550 90
2009-06-15 06:42:22 51°15.593 2°50.908 2.9 279 15.7 101550 89
2009-06-15 06:42:27 51°15.597 2°50.884 3.9 318 15.7 101550 89
2009-06-15 06:42:32 51°15.602 2°50.859 3.7 319 15.7 101560 89
2009-06-15 06:42:37 51°15.606 2°50.834 3.6 317 15.7 101560 89
2009-06-15 06:42:42 51°15.611 2°50.81 3.3 280 15.7 101550 89
2009-06-15 06:42:46 51°15.614 2°50.79 4.5 320 15.7 101550 89
2009-06-15 06:42:52 51°15.62 2°50.76 4.4 287 15.7 101550 90
2009-06-15 06:42:57 51°15.624 2°50.736 4.3 321 15.7 101550 90
2009-06-15 06:43:02 51°15.628 2°50.711 3.4 285 15.7 101560 89
2009-06-15 06:43:06 51°15.631 2°50.692 4 322 15.7 101560 89
2009-06-15 06:43:12 51°15.636 2°50.662 5.2 279 15.7 101560 89
2009-06-15 06:43:17 51°15.64 2°50.637 4.8 323 15.7 101560 89
2009-06-15 06:43:22 51°15.644 2°50.613 3.9 284 15.8 101570 90
2009-06-15 06:43:27 51°15.648 2°50.589 4.4 324 15.8 101570 90
2009-06-15 06:43:32 51°15.652 2°50.564 4.1 321 15.8 101570 90
2009-06-15 06:43:37 51°15.657 2°50.54 5.1 322 15.8 101570 90
2009-06-15 06:43:42 51°15.661 2°50.515 4 287 15.8 101570 90
2009-06-15 06:43:46 51°15.664 2°50.496 5 322 15.8 101570 90
2009-06-15 06:43:52 51°15.669 2°50.466 4.9 286 15.8 101570 90
2009-06-15 06:43:57 51°15.673 2°50.442 4.1 324 15.8 101570 90
2009-06-15 06:44:02 51°15.677 2°50.418 3.8 279 15.8 101570 90
2009-06-15 06:44:07 51°15.681 2°50.394 4.7 322 15.8 101570 90
2009-06-15 06:44:12 51°15.685 2°50.369 4.4 279 15.8 101580 90
2009-06-15 06:44:17 51°15.69 2°50.345 5 321 15.8 101580 90
2009-06-15 06:44:22 51°15.694 2°50.321 5.2 280 15.8 101580 89
2009-06-15 06:44:27 51°15.698 2°50.297 4.4 324 15.8 101580 89
2009-06-15 06:44:32 51°15.703 2°50.272 4.2 326 15.8 101580 90
2009-06-15 06:44:37 51°15.708 2°50.248 4.4 324 15.8 101580 90
2009-06-15 06:44:42 51°15.713 2°50.224 4.2 280 15.8 101580 90
2009-06-15 06:44:47 51°15.718 2°50.2 4 322 15.8 101580 90
2009-06-15 06:44:52 51°15.723 2°50.176 5.4 282 15.8 101580 90
2009-06-15 06:44:57 51°15.727 2°50.152 5.3 322 15.8 101580 90
2009-06-15 06:45:02 51°15.732 2°50.128 4.7 279 15.8 101580 89
2009-06-15 06:45:07 51°15.737 2°50.103 5.1 323 15.8 101580 89
2009-06-15 06:45:12 51°15.741 2°50.079 4.6 280 15.8 101580 90
2009-06-15 06:45:17 51°15.746 2°50.054 4.2 323 15.8 101580 90
2009-06-15 06:45:22 51°15.75 2°50.03 4.4 284 15.8 101580 90
2009-06-15 06:45:26 51°15.753 2°50.01 5.7 323 15.8 101580 90
2009-06-15 06:45:32 51°15.759 2°49.981 5.5 324 15.8 101590 89
2009-06-15 06:45:37 51°15.763 2°49.956 5.3 324 15.8 101590 89
2009-06-15 06:45:42 51°15.768 2°49.932 5.3 281 15.9 101580 90
2009-06-15 06:45:47 51°15.772 2°49.907 5.4 323 15.9 101580 90
2009-06-15 06:45:52 51°15.776 2°49.882 4.3 281 15.9 101580 90
2009-06-15 06:45:57 51°15.781 2°49.858 4.5 325 15.9 101580 90
2009-06-15 06:46:02 51°15.785 2°49.833 4.4 285 15.9 101580 90
2009-06-15 06:46:07 51°15.79 2°49.809 5.4 324 15.9 101580 90
2009-06-15 06:46:12 51°15.794 2°49.784 5.4 279 15.9 101580 90
2009-06-15 06:46:17 51°15.798 2°49.759 5.4 326 15.9 101580 90
2009-06-15 06:46:22 51°15.802 2°49.735 4.1 282 15.9 101580 91
2009-06-15 06:46:27 51°15.807 2°49.71 5.6 326 15.9 101580 91
2009-06-15 06:46:32 51°15.81 2°49.686 4.6 328 15.9 101580 92
2009-06-15 06:46:37 51°15.814 2°49.661 5.4 325 15.9 101580 92
2009-06-15 06:46:42 51°15.818 2°49.636 5.2 285 15.9 101580 92
2009-06-15 06:46:46 51°15.821 2°49.617 4.1 326 15.9 101580 92
2009-06-15 06:46:52 51°15.826 2°49.587 5.3 280 15.9 101580 92
2009-06-15 06:46:57 51°15.829 2°49.563 4.3 324 15.9 101580 92
2009-06-15 06:47:02 51°15.833 2°49.538 5.4 280 15.9 101580 92
2009-06-15 06:47:07 51°15.836 2°49.513 5.3 323 15.9 101580 92
2009-06-15 06:47:12 51°15.84 2°49.489 4.5 282 15.9 101580 91
2009-06-15 06:47:17 51°15.843 2°49.464 5.5 323 15.9 101580 91
2009-06-15 06:47:22 51°15.847 2°49.439 5.8 279 15.9 101570 92
2009-06-15 06:47:26 51°15.85 2°49.419 5.7 324 15.9 101570 92
2009-06-15 06:47:32 51°15.854 2°49.39 4.4 325 15.9 101570 92
2009-06-15 06:47:37 51°15.858 2°49.365 5.7 324 15.9 101570 92
2009-06-15 06:47:42 51°15.862 2°49.341 4.6 285 15.9 101570 92
2009-06-15 06:47:47 51°15.865 2°49.316 6 324 15.9 101570 92
2009-06-15 06:47:52 51°15.869 2°49.291 4.8 278 15.9 101580 91
2009-06-15 06:47:57 51°15.872 2°49.266 5.7 324 15.9 101580 91
2009-06-15 06:48:02 51°15.875 2°49.242 4.8 280 15.9 101570 92
2009-06-15 06:48:07 51°15.877 2°49.217 5.7 321 15.9 101570 92
2009-06-15 06:48:11 51°15.879 2°49.197 4.6 282 15.9 101570 92
2009-06-15 06:48:17 51°15.88 2°49.167 5.8 320 15.9 101570 92
2009-06-15 06:48:22 51°15.882 2°49.141 4.8 279 15.9 101580 92
2009-06-15 06:48:27 51°15.883 2°49.116 5 323 15.9 101580 92
2009-06-15 06:48:32 51°15.883 2°49.091 4.8 323 15.9 101570 92
2009-06-15 06:48:37 51°15.884 2°49.065 5.9 324 15.9 101570 92
2009-06-15 06:48:42 51°15.884 2°49.04 5 278 15.9 101570 91
2009-06-15 06:48:47 51°15.885 2°49.015 4.9 324 15.9 101570 91
2009-06-15 06:48:52 51°15.885 2°48.989 6 281 15.9 101570 91
2009-06-15 06:48:57 51°15.885 2°48.964 5 325 15.9 101570 91
2009-06-15 06:49:02 51°15.885 2°48.939 6.3 285 15.9 101580 91
2009-06-15 06:49:07 51°15.886 2°48.913 5.3 322 15.9 101580 91
2009-06-15 06:49:12 51°15.886 2°48.888 6.2 284 15.9 101580 91
2009-06-15 06:49:17 51°15.886 2°48.862 6.3 324 15.9 101580 91
2009-06-15 06:49:22 51°15.886 2°48.837 4.9 283 15.9 101580 91
2009-06-15 06:49:27 51°15.886 2°48.812 5.9 323 15.9 101580 91
2009-06-15 06:49:32 51°15.886 2°48.786 6.2 323 15.9 101580 91
2009-06-15 06:49:37 51°15.886 2°48.761 5.2 325 15.9 101580 91
2009-06-15 06:49:42 51°15.886 2°48.736 6.3 279 15.9 101580 91
2009-06-15 06:49:46 51°15.886 2°48.716 5.1 325 15.9 101580 91
2009-06-15 06:49:52 51°15.887 2°48.685 5.4 284 15.9 101580 91
2009-06-15 06:49:57 51°15.887 2°48.66 5.4 325 15.9 101580 91
2009-06-15 06:50:02 51°15.887 2°48.635 5.3 283 15.9 101580 91
2009-06-15 06:50:06 51°15.887 2°48.614 6.6 325 15.9 101580 91
2009-06-15 06:50:12 51°15.888 2°48.584 5.1 281 15.9 101580 91
2009-06-15 06:50:17 51°15.889 2°48.558 5.1 327 15.9 101580 91
2009-06-15 06:50:22 51°15.889 2°48.533 5.4 278 15.9 101580 91
2009-06-15 06:50:27 51°15.89 2°48.508 6.5 327 15.9 101580 91
2009-06-15 06:50:32 51°15.89 2°48.482 5.2 326 15.9 101580 91
2009-06-15 06:50:37 51°15.891 2°48.457 5.5 325 15.9 101580 91
2009-06-15 06:50:42 51°15.891 2°48.432 6.5 277 15.9 101590 91
2009-06-15 06:50:47 51°15.892 2°48.406 5.2 324 15.9 101590 91
2009-06-15 06:50:52 51°15.892 2°48.381 5.4 284 15.9 101580 90
2009-06-15 06:50:57 51°15.893 2°48.356 6.4 324 15.9 101580 90
2009-06-15 06:51:02 51°15.894 2°48.33 6.3 277 15.9 101580 91
2009-06-15 06:51:07 51°15.896 2°48.305 6.3 325 15.9 101580 91
2009-06-15 06:51:12 51°15.897 2°48.279 6.2 325 15.9 101580 91
2009-06-15 06:51:17 51°15.898 2°48.254 6 327 15.9 101580 91
2009-06-15 06:51:22 51°15.9 2°48.228 5.1 326 15.9 101580 90
2009-06-15 06:51:27 51°15.901 2°48.203 6.4 325 15.9 101580 90
2009-06-15 06:51:32 51°15.903 2°48.178 6.3 326 15.9 101590 90
2009-06-15 06:51:37 51°15.905 2°48.152 6.5 327 15.9 101590 90
2009-06-15 06:51:42 51°15.906 2°48.127 6.3 326 15.8 101590 90
2009-06-15 06:51:47 51°15.908 2°48.101 6.3 328 15.8 101590 90
2009-06-15 06:51:52 51°15.909 2°48.076 6.4 278 15.9 101580 90
2009-06-15 06:51:57 51°15.911 2°48.05 5.3 325 15.9 101580 90
2009-06-15 06:52:02 51°15.912 2°48.025 6.5 326 15.9 101590 90
2009-06-15 06:52:06 51°15.914 2°48.005 6.7 327 15.9 101590 90
2009-06-15 06:52:12 51°15.915 2°47.974 6.7 284 15.9 101580 90
2009-06-15 06:52:17 51°15.916 2°47.949 6.7 325 15.9 101580 90
2009-06-15 06:52:22 51°15.917 2°47.924 5.5 327 15.8 101590 90
2009-06-15 06:52:27 51°15.918 2°47.898 6.7 327 15.8 101590 90
2009-06-15 06:52:32 51°15.919 2°47.873 5.4 327 15.9 101590 90
2009-06-15 06:52:37 51°15.919 2°47.848 5.7 325 15.9 101590 90
2009-06-15 06:52:42 51°15.92 2°47.823 7 286 15.9 101590 90
2009-06-15 06:52:47 51°15.921 2°47.798 5.8 326 15.9 101590 90
2009-06-15 06:52:52 51°15.922 2°47.773 6.9 278 15.8 101600 90
2009-06-15 06:52:57 51°15.923 2°47.748 6.9 325 15.8 101600 90
2009-06-15 06:53:02 51°15.924 2°47.723 5.8 285 15.9 101590 90
2009-06-15 06:53:07 51°15.925 2°47.697 5.7 324 15.9 101590 90
2009-06-15 06:53:12 51°15.926 2°47.672 6 324 15.9 101600 90
2009-06-15 06:53:17 51°15.927 2°47.647 7.1 324 15.9 101600 90
2009-06-15 06:53:22 51°15.928 2°47.622 5.8 284 15.9 101590 90
2009-06-15 06:53:27 51°15.929 2°47.597 7.2 325 15.9 101590 90
2009-06-15 06:53:32 51°15.93 2°47.572 7.2 325 15.9 101590 90
2009-06-15 06:53:37 51°15.931 2°47.547 6.2 324 15.9 101590 90
2009-06-15 06:53:42 51°15.932 2°47.522 6.2 325 15.9 101600 90
2009-06-15 06:53:47 51°15.934 2°47.497 7.1 324 15.9 101600 90
2009-06-15 06:53:52 51°15.934 2°47.471 7.2 283 15.9 101600 90
2009-06-15 06:53:57 51°15.936 2°47.446 6 324 15.9 101600 90
2009-06-15 06:54:02 51°15.937 2°47.421 5.8 324 15.9 101590 90
2009-06-15 06:54:07 51°15.938 2°47.396 5.8 325 15.9 101590 90
2009-06-15 06:54:12 51°15.939 2°47.371 6.8 283 15.9 101600 90
2009-06-15 06:54:17 51°15.941 2°47.346 5.6 323 15.9 101600 90
2009-06-15 06:54:22 51°15.941 2°47.321 5.7 324 15.9 101600 90
2009-06-15 06:54:27 51°15.942 2°47.296 7 324 15.9 101600 90
2009-06-15 06:54:32 51°15.943 2°47.27 7.1 324 15.8 101600 90
2009-06-15 06:54:37 51°15.945 2°47.245 5.7 325 15.8 101600 90
2009-06-15 06:54:42 51°15.945 2°47.22 6.8 285 15.8 101600 90
2009-06-15 06:54:47 51°15.947 2°47.195 5.5 325 15.8 101600 90
2009-06-15 06:54:52 51°15.948 2°47.17 5.7 284 15.8 101610 90
2009-06-15 06:54:57 51°15.949 2°47.145 6.7 327 15.8 101610 90
2009-06-15 06:55:02 51°15.95 2°47.12 6.6 284 15.8 101600 90
2009-06-15 06:55:07 51°15.951 2°47.094 5.5 325 15.8 101600 90
2009-06-15 06:55:12 51°15.953 2°47.069 6.9 325 15.8 101610 90
2009-06-15 06:55:17 51°15.954 2°47.044 7.2 323 15.8 101610 90
2009-06-15 06:55:22 51°15.955 2°47.019 6.9 281 15.8 101610 90
2009-06-15 06:55:27 51°15.958 2°46.994 7.2 324 15.8 101610 90
2009-06-15 06:55:32 51°15.96 2°46.969 6 326 15.8 101610 91
2009-06-15 06:55:37 51°15.964 2°46.945 5.7 325 15.8 101610 91
2009-06-15 06:55:42 51°15.967 2°46.92 5.6 279 15.8 101610 91
2009-06-15 06:55:47 51°15.971 2°46.895 7 327 15.8 101610 91
2009-06-15 06:55:52 51°15.975 2°46.871 6.8 280 15.8 101610 91
2009-06-15 06:55:57 51°15.979 2°46.846 5.8 328 15.8 101610 91
2009-06-15 06:56:02 51°15.984 2°46.821 5.9 328 15.8 101610 91
2009-06-15 06:56:06 51°15.987 2°46.802 5.9 328 15.8 101610 91
2009-06-15 06:56:12 51°15.993 2°46.773 7 282 15.8 101610 90
2009-06-15 06:56:17 51°15.998 2°46.749 6.8 329 15.8 101610 90
2009-06-15 06:56:22 51°16.003 2°46.725 6.7 331 15.8 101620 91
2009-06-15 06:56:26 51°16.007 2°46.705 7.1 329 15.8 101620 91
2009-06-15 06:56:32 51°16.012 2°46.677 5.9 329 15.8 101620 91
2009-06-15 06:56:37 51°16.017 2°46.653 5.8 328 15.8 101620 91
2009-06-15 06:56:42 51°16.022 2°46.629 5.9 328 15.8 101620 91
2009-06-15 06:56:46 51°16.026 2°46.61 5.9 329 15.8 101620 91
2009-06-15 06:56:52 51°16.032 2°46.582 5.9 279 15.7 101610 91
2009-06-15 06:56:57 51°16.037 2°46.558 7.1 332 15.7 101610 91
2009-06-15 06:57:02 51°16.043 2°46.534 6.2 330 15.7 101620 91
2009-06-15 06:57:06 51°16.047 2°46.515 7.3 331 15.7 101620 91
2009-06-15 06:57:12 51°16.053 2°46.487 7.4 278 15.7 101620 91
2009-06-15 06:57:17 51°16.059 2°46.463 7.4 330 15.7 101620 91
2009-06-15 06:57:22 51°16.066 2°46.44 6.5 282 15.7 101620 91
2009-06-15 06:57:26 51°16.071 2°46.422 7.3 331 15.7 101620 91
2009-06-15 06:57:32 51°16.079 2°46.395 6.2 331 15.7 101630 91
2009-06-15 06:57:37 51°16.086 2°46.372 7.5 332 15.7 101630 91
2009-06-15 06:57:42 51°16.094 2°46.35 7.1 284 15.7 101630 91
2009-06-15 06:57:47 51°16.101 2°46.327 6.4 333 15.7 101630 91
2009-06-15 06:57:52 51°16.108 2°46.305 5.9 285 15.7 101630 91
2009-06-15 06:57:57 51°16.115 2°46.282 5.9 332 15.7 101630 91
2009-06-15 06:58:02 51°16.123 2°46.26 6.1 285 15.7 101630 91
2009-06-15 06:58:07 51°16.13 2°46.237 7.4 332 15.7 101630 91
2009-06-15 06:58:12 51°16.138 2°46.215 6.4 278 15.7 101630 91
2009-06-15 06:58:17 51°16.145 2°46.192 7.6 332 15.7 101630 91
2009-06-15 06:58:22 51°16.153 2°46.17 6.4 332 15.7 101630 91
2009-06-15 06:58:27 51°16.16 2°46.148 7.4 330 15.7 101630 91
2009-06-15 06:58:32 51°16.169 2°46.125 7.9 331 15.7 101640 91
2009-06-15 06:58:37 51°16.176 2°46.103 7.4 331 15.7 101640 91
2009-06-15 06:58:42 51°16.184 2°46.081 7.6 282 15.7 101640 91
2009-06-15 06:58:47 51°16.192 2°46.059 7.5 332 15.7 101640 91
2009-06-15 06:58:52 51°16.2 2°46.037 7.6 280 15.7 101640 91
2009-06-15 06:58:57 51°16.208 2°46.014 6.2 331 15.7 101640 91
2009-06-15 06:59:02 51°16.216 2°45.991 7.7 286 15.7 101640 91
2009-06-15 06:59:06 51°16.222 2°45.973 6.5 332 15.7 101640 91
2009-06-15 06:59:12 51°16.231 2°45.946 7.8 284 15.7 101640 91
2009-06-15 06:59:17 51°16.238 2°45.923 6.4 331 15.7 101640 91
2009-06-15 06:59:22 51°16.245 2°45.899 7.4 284 15.7 101640 91
2009-06-15 06:59:27 51°16.252 2°45.876 7.6 332 15.7 101640 91
2009-06-15 06:59:32 51°16.26 2°45.853 7.6 331 15.7 101640 91
2009-06-15 06:59:37 51°16.267 2°45.83 6.7 332 15.7 101640 91
2009-06-15 06:59:42 51°16.274 2°45.806 7.6 282 15.7 101640 92
2009-06-15 06:59:47 51°16.281 2°45.783 6.6 333 15.7 101640 92
2009-06-15 06:59:52 51°16.289 2°45.759 6.6 332 15.7 101650 92
2009-06-15 06:59:57 51°16.296 2°45.736 7.7 333 15.7 101650 92
2009-06-15 07:00:02 51°16.304 2°45.713 7.8 282 15.7 101640 92
2009-06-15 07:00:07 51°16.311 2°45.689 6.7 330 15.7 101640 92
2009-06-15 07:00:12 51°16.319 2°45.666 8.1 281 15.7 101650 92
2009-06-15 07:00:17 51°16.326 2°45.642 7.8 329 15.7 101650 92
2009-06-15 07:00:22 51°16.333 2°45.618 7.7 281 15.6 101650 91
2009-06-15 07:00:26 51°16.34 2°45.6 7.9 329 15.6 101650 91
2009-06-15 07:00:32 51°16.349 2°45.573 6.3 332 15.6 101650 91
2009-06-15 07:00:37 51°16.359 2°45.552 6.6 329 15.6 101650 91
2009-06-15 07:00:42 51°16.368 2°45.53 6.4 280 15.6 101650 91
2009-06-15 07:00:47 51°16.379 2°45.51 6.5 329 15.6 101650 91
2009-06-15 07:00:52 51°16.39 2°45.489 7.9 286 15.6 101650 91
2009-06-15 07:00:57 51°16.401 2°45.47 7.6 329 15.6 101650 91
2009-06-15 07:01:02 51°16.412 2°45.45 6.5 279 15.6 101650 92
2009-06-15 07:01:07 51°16.424 2°45.431 7.6 329 15.6 101650 92
2009-06-15 07:01:12 51°16.436 2°45.412 6.6 282 15.6 101660 91
2009-06-15 07:01:17 51°16.448 2°45.393 6.4 330 15.6 101660 91
2009-06-15 07:01:22 51°16.46 2°45.375 7.7 285 15.6 101660 91
2009-06-15 07:01:27 51°16.473 2°45.357 7.7 328 15.6 101660 91
2009-06-15 07:01:31 51°16.483 2°45.342 7.8 329 15.6 101650 91
2009-06-15 07:01:37 51°16.498 2°45.321 8.2 328 15.6 101650 91
2009-06-15 07:01:42 51°16.511 2°45.303 8.1 281 15.6 101650 91
2009-06-15 07:01:47 51°16.524 2°45.286 8 328 15.6 101650 91
2009-06-15 07:01:52 51°16.536 2°45.267 6.7 327 15.6 101650 91
2009-06-15 07:01:57 51°16.548 2°45.249 8 329 15.6 101650 91
2009-06-15 07:02:02 51°16.56 2°45.23 6.8 285 15.6 101660 91
2009-06-15 07:02:07 51°16.572 2°45.211 7.6 329 15.6 101660 91
2009-06-15 07:02:12 51°16.584 2°45.192 6.7 330 15.6 101660 91
2009-06-15 07:02:17 51°16.595 2°45.172 6.4 328 15.6 101660 91
2009-06-15 07:02:22 51°16.607 2°45.153 8.4 283 15.6 101660 91
2009-06-15 07:02:27 51°16.618 2°45.134 8.2 329 15.6 101660 91
2009-06-15 07:02:32 51°16.629 2°45.114 6.6 329 15.6 101650 91
2009-06-15 07:02:37 51°16.64 2°45.094 7.7 329 15.6 101650 91
2009-06-15 07:02:42 51°16.652 2°45.075 6.8 281 15.6 101650 91
2009-06-15 07:02:47 51°16.663 2°45.055 7.9 329 15.6 101650 91
2009-06-15 07:02:52 51°16.674 2°45.035 6.8 330 15.6 101650 91
2009-06-15 07:02:57 51°16.685 2°45.015 6.4 328 15.6 101650 91
2009-06-15 07:03:02 51°16.696 2°44.996 6.8 283 15.6 101660 91
2009-06-15 07:03:07 51°16.708 2°44.976 7.8 327 15.6 101660 91
2009-06-15 07:03:12 51°16.719 2°44.957 6.5 283 15.6 101650 91
2009-06-15 07:03:17 51°16.73 2°44.937 6.4 328 15.6 101650 91
2009-06-15 07:03:22 51°16.741 2°44.917 7.8 281 15.6 101660 91
2009-06-15 07:03:26 51°16.75 2°44.901 7.9 327 15.6 101660 91
2009-06-15 07:03:32 51°16.763 2°44.878 7.9 327 15.6 101660 91
2009-06-15 07:03:37 51°16.775 2°44.858 7.9 329 15.6 101660 91
2009-06-15 07:03:42 51°16.785 2°44.838 6.7 287 15.6 101660 91
2009-06-15 07:03:47 51°16.796 2°44.817 6.7 328 15.6 101660 91
2009-06-15 07:03:52 51°16.806 2°44.797 7.6 282 15.6 101660 91
2009-06-15 07:03:57 51°16.817 2°44.776 7.8 329 15.6 101660 91
2009-06-15 07:04:02 51°16.827 2°44.755 6.5 278 15.6 101650 91
2009-06-15 07:04:07 51°16.837 2°44.734 7.8 328 15.6 101650 91
2009-06-15 07:04:12 51°16.847 2°44.713 8.2 328 15.6 101660 91
2009-06-15 07:04:17 51°16.857 2°44.692 8 328 15.6 101660 91
2009-06-15 07:04:22 51°16.867 2°44.671 7.8 279 15.6 101650 91
2009-06-15 07:04:27 51°16.878 2°44.65 8.1 327 15.6 101650 91
2009-06-15 07:04:32 51°16.887 2°44.629 6.8 329 15.6 101660 91
2009-06-15 07:04:37 51°16.898 2°44.608 6.7 328 15.6 101660 91
2009-06-15 07:04:42 51°16.908 2°44.587 6.9 279 15.6 101660 91
2009-06-15 07:04:47 51°16.918 2°44.566 6.9 329 15.6 101660 91
2009-06-15 07:04:52 51°16.928 2°44.545 6.9 285 15.6 101660 91
2009-06-15 07:04:57 51°16.938 2°44.525 7.1 329 15.6 101660 91
2009-06-15 07:05:02 51°16.949 2°44.504 7.1 328 15.6 101660 91
2009-06-15 07:05:07 51°16.959 2°44.483 8.4 327 15.6 101660 91
2009-06-15 07:05:12 51°16.969 2°44.462 8.4 284 15.6 101650 91
2009-06-15 07:05:17 51°16.979 2°44.441 8.3 327 15.6 101650 91
2009-06-15 07:05:22 51°16.989 2°44.42 8.5 328 15.6 101660 91
2009-06-15 07:05:26 51°16.998 2°44.403 7.4 327 15.6 101660 91
2009-06-15 07:05:32 51°17.01 2°44.378 7.1 327 15.6 101660 91
2009-06-15 07:05:37 51°17.019 2°44.357 7.4 329 15.6 101660 91
2009-06-15 07:05:42 51°17.029 2°44.336 8.6 279 15.6 101670 91
2009-06-15 07:05:47 51°17.038 2°44.314 8.8 329 15.6 101670 91
2009-06-15 07:05:52 51°17.048 2°44.293 8.5 280 15.6 101660 91
2009-06-15 07:05:57 51°17.057 2°44.271 7.3 329 15.6 101660 91
2009-06-15 07:06:02 51°17.066 2°44.249 8.3 279 15.7 101660 91
2009-06-15 07:06:06 51°17.073 2°44.232 8.4 328 15.7 101660 91
2009-06-15 07:06:12 51°17.084 2°44.206 7.4 329 15.6 101660 91
2009-06-15 07:06:17 51°17.093 2°44.184 7.5 328 15.6 101660 91
2009-06-15 07:06:22 51°17.103 2°44.162 7.5 285 15.6 101670 91
2009-06-15 07:06:27 51°17.111 2°44.14 7.3 328 15.6 101670 91
2009-06-15 07:06:32 51°17.12 2°44.117 7.4 328 15.6 101670 91
2009-06-15 07:06:37 51°17.129 2°44.096 7.4 328 15.6 101670 91
2009-06-15 07:06:42 51°17.137 2°44.073 8.7 282 15.6 101670 92
2009-06-15 07:06:47 51°17.146 2°44.051 7.2 328 15.6 101670 92
2009-06-15 07:06:52 51°17.155 2°44.029 7.5 328 15.6 101670 91
2009-06-15 07:06:57 51°17.164 2°44.006 8.4 327 15.6 101670 91
2009-06-15 07:07:02 51°17.173 2°43.984 7.4 328 15.6 101670 91
2009-06-15 07:07:07 51°17.182 2°43.962 8.4 329 15.6 101670 91
2009-06-15 07:07:12 51°17.191 2°43.94 7 330 15.6 101670 92
2009-06-15 07:07:17 51°17.199 2°43.918 7.2 330 15.6 101670 92
2009-06-15 07:07:22 51°17.208 2°43.896 7 277 15.6 101670 91
2009-06-15 07:07:27 51°17.217 2°43.873 7.9 328 15.6 101670 91
2009-06-15 07:07:32 51°17.226 2°43.851 8.7 328 15.6 101670 91
2009-06-15 07:07:37 51°17.234 2°43.829 8.3 329 15.6 101670 91
2009-06-15 07:07:42 51°17.244 2°43.807 6.9 279 15.6 101670 91
2009-06-15 07:07:46 51°17.251 2°43.789 6.9 330 15.6 101670 91
2009-06-15 07:07:52 51°17.262 2°43.762 7.7 284 15.6 101670 91
2009-06-15 07:07:57 51°17.271 2°43.74 6.9 330 15.6 101670 91
2009-06-15 07:08:02 51°17.28 2°43.718 7.2 279 15.6 101670 92
2009-06-15 07:08:07 51°17.289 2°43.695 6.9 329 15.6 101670 92
2009-06-15 07:08:12 51°17.298 2°43.673 7.8 329 15.6 101670 92
2009-06-15 07:08:17 51°17.307 2°43.651 6.4 329 15.6 101670 92
2009-06-15 07:08:22 51°17.316 2°43.629 7.9 280 15.6 101670 92
2009-06-15 07:08:27 51°17.325 2°43.607 7.5 330 15.6 101670 92
2009-06-15 07:08:32 51°17.334 2°43.584 6.4 330 15.6 101670 92
2009-06-15 07:08:37 51°17.343 2°43.562 7.7 329 15.6 101670 92
2009-06-15 07:08:42 51°17.352 2°43.54 7.7 279 15.6 101670 92
2009-06-15 07:08:47 51°17.36 2°43.517 6.6 329 15.6 101670 92
2009-06-15 07:08:52 51°17.369 2°43.495 6.4 329 15.6 101670 92
2009-06-15 07:08:57 51°17.378 2°43.473 7.1 329 15.6 101670 92
2009-06-15 07:09:02 51°17.387 2°43.451 7.2 283 15.6 101660 92
2009-06-15 07:09:07 51°17.396 2°43.428 7.2 329 15.6 101660 92
2009-06-15 07:09:12 51°17.405 2°43.406 6.2 284 15.6 101670 92
2009-06-15 07:09:17 51°17.414 2°43.384 6.1 328 15.6 101670 92
2009-06-15 07:09:22 51°17.422 2°43.362 7.2 282 15.6 101670 92
2009-06-15 07:09:27 51°17.431 2°43.339 6 328 15.6 101670 92
2009-06-15 07:09:32 51°17.44 2°43.317 6.9 331 15.6 101660 92
2009-06-15 07:09:37 51°17.449 2°43.295 6.1 330 15.6 101660 92
2009-06-15 07:09:42 51°17.458 2°43.273 7 331 15.6 101670 92
2009-06-15 07:09:47 51°17.466 2°43.251 7.2 330 15.6 101670 92
2009-06-15 07:09:52 51°17.475 2°43.229 6.1 279 15.6 101670 92
2009-06-15 07:09:57 51°17.483 2°43.206 6.2 331 15.6 101670 92
2009-06-15 07:10:02 51°17.492 2°43.184 6.1 331 15.6 101670 92
2009-06-15 07:10:07 51°17.5 2°43.161 6.8 330 15.6 101670 92
2009-06-15 07:10:12 51°17.509 2°43.139 6.6 279 15.6 101670 92
2009-06-15 07:10:17 51°17.517 2°43.116 5.8 331 15.6 101670 92
2009-06-15 07:10:22 51°17.526 2°43.094 6.8 283 15.6 101670 92
2009-06-15 07:10:26 51°17.533 2°43.076 6.9 332 15.6 101670 92
2009-06-15 07:10:32 51°17.543 2°43.049 6.7 330 15.6 101670 92
2009-06-15 07:10:37 51°17.552 2°43.027 5.9 331 15.6 101670 92
2009-06-15 07:10:42 51°17.56 2°43.005 7.1 284 15.6 101670 92
2009-06-15 07:10:47 51°17.569 2°42.983 6.1 332 15.6 101670 92
2009-06-15 07:10:52 51°17.578 2°42.961 6.9 332 15.6 101670 92
2009-06-15 07:10:57 51°17.587 2°42.939 6.4 331 15.6 101670 92
2009-06-15 07:11:02 51°17.597 2°42.917 7.1 281 15.6 101670 92
2009-06-15 07:11:07 51°17.605 2°42.895 6.3 333 15.6 101670 92
2009-06-15 07:11:12 51°17.615 2°42.873 7.1 279 15.5 101670 92
2009-06-15 07:11:17 51°17.624 2°42.851 7.2 333 15.5 101670 92
2009-06-15 07:11:22 51°17.633 2°42.829 6.9 280 15.5 101670 92
2009-06-15 07:11:27 51°17.642 2°42.807 7.1 332 15.5 101670 92
2009-06-15 07:11:32 51°17.652 2°42.785 7.4 333 15.5 101670 93
2009-06-15 07:11:37 51°17.661 2°42.763 7.6 333 15.5 101670 93
2009-06-15 07:11:42 51°17.67 2°42.741 7.3 280 15.5 101670 92
2009-06-15 07:11:47 51°17.679 2°42.719 6.4 333 15.5 101670 92
2009-06-15 07:11:52 51°17.688 2°42.697 7.2 278 15.5 101680 92
2009-06-15 07:11:57 51°17.698 2°42.675 6.8 333 15.5 101680 92
2009-06-15 07:12:02 51°17.707 2°42.653 7.4 332 15.5 101670 92
2009-06-15 07:12:07 51°17.717 2°42.631 7.5 332 15.5 101670 92
2009-06-15 07:12:12 51°17.727 2°42.609 6.7 279 15.5 101670 92
2009-06-15 07:12:17 51°17.737 2°42.587 6.5 332 15.5 101670 92
2009-06-15 07:12:22 51°17.747 2°42.565 6.7 331 15.5 101680 92
2009-06-15 07:12:26 51°17.755 2°42.547 7.7 331 15.5 101680 92
2009-06-15 07:12:32 51°17.767 2°42.521 7.9 332 15.5 101680 92
2009-06-15 07:12:37 51°17.777 2°42.499 7.8 333 15.5 101680 92
2009-06-15 07:12:42 51°17.787 2°42.477 6.8 333 15.5 101680 92
2009-06-15 07:12:47 51°17.796 2°42.455 6.6 332 15.5 101680 92
2009-06-15 07:12:52 51°17.806 2°42.433 6.7 285 15.5 101680 93
2009-06-15 07:12:57 51°17.816 2°42.411 6.6 331 15.5 101680 93
2009-06-15 07:13:02 51°17.825 2°42.389 7.1 285 15.5 101690 92
2009-06-15 07:13:07 51°17.834 2°42.367 7.8 332 15.5 101690 92
2009-06-15 07:13:12 51°17.844 2°42.346 7.6 285 15.5 101680 93
2009-06-15 07:13:17 51°17.854 2°42.324 6.7 332 15.5 101680 93
2009-06-15 07:13:22 51°17.863 2°42.302 6.8 284 15.5 101680 93
2009-06-15 07:13:27 51°17.872 2°42.28 6.7 331 15.5 101680 93
2009-06-15 07:13:32 51°17.881 2°42.258 7.6 331 15.5 101680 93
2009-06-15 07:13:37 51°17.89 2°42.236 7.7 332 15.5 101680 93
2009-06-15 07:13:42 51°17.899 2°42.214 7.8 279 15.5 101680 92
2009-06-15 07:13:47 51°17.908 2°42.192 8 333 15.5 101680 92
2009-06-15 07:13:52 51°17.917 2°42.17 6.9 333 15.5 101680 93
2009-06-15 07:13:57 51°17.926 2°42.148 7.5 332 15.5 101680 93
2009-06-15 07:14:02 51°17.934 2°42.126 7.7 282 15.5 101680 93
2009-06-15 07:14:07 51°17.943 2°42.104 7 332 15.5 101680 93
2009-06-15 07:14:12 51°17.952 2°42.082 6.7 279 15.5 101680 92
2009-06-15 07:14:17 51°17.961 2°42.06 6.9 333 15.5 101680 92
2009-06-15 07:14:22 51°17.97 2°42.038 7.8 285 15.5 101680 93
2009-06-15 07:14:26 51°17.977 2°42.02 7.7 334 15.5 101680 93
2009-06-15 07:14:32 51°17.987 2°41.994 6.9 334 15.5 101680 93
2009-06-15 07:14:37 51°17.996 2°41.972 6.9 334 15.5 101680 93
2009-06-15 07:14:42 51°18.005 2°41.95 6.7 333 15.5 101690 93
2009-06-15 07:14:46 51°18.012 2°41.933 7.6 332 15.5 101690 93
2009-06-15 07:14:52 51°18.024 2°41.907 6.8 280 15.5 101680 93
2009-06-15 07:14:57 51°18.033 2°41.885 7.8 333 15.5 101680 93
2009-06-15 07:15:02 51°18.042 2°41.864 7.7 281 15.5 101680 93
2009-06-15 07:15:06 51°18.05 2°41.846 7.9 333 15.5 101680 93
2009-06-15 07:15:12 51°18.061 2°41.82 7.6 284 15.5 101680 93
2009-06-15 07:15:17 51°18.07 2°41.799 7.7 334 15.5 101680 93
2009-06-15 07:15:22 51°18.079 2°41.777 7.7 280 15.5 101680 93
2009-06-15 07:15:26 51°18.087 2°41.759 7.7 335 15.5 101680 93
2009-06-15 07:15:32 51°18.098 2°41.733 7.7 333 15.5 101680 93
2009-06-15 07:15:37 51°18.107 2°41.711 7.7 334 15.5 101680 93
2009-06-15 07:15:42 51°18.115 2°41.689 6.4 285 15.5 101680 93
2009-06-15 07:15:46 51°18.123 2°41.671 6.5 333 15.5 101680 93
2009-06-15 07:15:52 51°18.134 2°41.645 7.3 277 15.5 101680 93
2009-06-15 07:15:57 51°18.143 2°41.623 6.4 333 15.5 101680 93
2009-06-15 07:16:02 51°18.153 2°41.602 6.8 280 15.5 101690 93
2009-06-15 07:16:07 51°18.162 2°41.581 6.4 333 15.5 101690 93
2009-06-15 07:16:12 51°18.172 2°41.56 6.7 283 15.5 101680 93
2009-06-15 07:16:17 51°18.182 2°41.539 6.6 333 15.5 101680 93
2009-06-15 07:16:22 51°18.192 2°41.519 7.3 284 15.5 101680 93
2009-06-15 07:16:27 51°18.202 2°41.498 7 332 15.5 101680 93
2009-06-15 07:16:32 51°18.213 2°41.477 6.6 333 15.5 101680 93
2009-06-15 07:16:37 51°18.223 2°41.456 6.5 333 15.5 101680 93
2009-06-15 07:16:42 51°18.234 2°41.437 7.4 334 15.5 101680 93
2009-06-15 07:16:47 51°18.245 2°41.417 7.2 331 15.5 101680 93
2009-06-15 07:16:52 51°18.255 2°41.397 7 284 15.5 101680 93
2009-06-15 07:16:57 51°18.267 2°41.377 6.5 332 15.5 101680 93
2009-06-15 07:17:02 51°18.278 2°41.358 6.3 284 15.5 101680 93
2009-06-15 07:17:07 51°18.29 2°41.339 6.8 332 15.5 101680 93
2009-06-15 07:17:12 51°18.301 2°41.32 7 281 15.5 101680 93
2009-06-15 07:17:17 51°18.313 2°41.301 6.7 331 15.5 101680 93
2009-06-15 07:17:22 51°18.324 2°41.282 7.5 284 15.5 101680 93
2009-06-15 07:17:27 51°18.336 2°41.263 7.1 332 15.5 101680 93
2009-06-15 07:17:32 51°18.348 2°41.244 6.1 332 15.5 101680 93
2009-06-15 07:17:37 51°18.36 2°41.226 6.7 331 15.5 101680 93
2009-06-15 07:17:42 51°18.371 2°41.207 6.9 278 15.5 101680 93
2009-06-15 07:17:47 51°18.383 2°41.188 6.7 332 15.5 101680 93
2009-06-15 07:17:52 51°18.395 2°41.17 6.5 332 15.5 101670 93
2009-06-15 07:17:57 51°18.407 2°41.151 5.7 332 15.5 101670 93
2009-06-15 07:18:02 51°18.419 2°41.133 6.6 279 15.5 101670 93
2009-06-15 07:18:07 51°18.431 2°41.114 5.9 331 15.5 101670 93
2009-06-15 07:18:12 51°18.442 2°41.095 6 333 15.5 101670 93
2009-06-15 07:18:17 51°18.454 2°41.077 5.8 332 15.5 101670 93
2009-06-15 07:18:22 51°18.465 2°41.058 6.3 281 15.5 101680 93
2009-06-15 07:18:27 51°18.477 2°41.039 6.2 333 15.5 101680 93
2009-06-15 07:18:32 51°18.488 2°41.02 6.1 332 15.5 101670 93
2009-06-15 07:18:37 51°18.5 2°41.001 6.2 333 15.5 101670 93
2009-06-15 07:18:42 51°18.511 2°40.982 5.5 287 15.5 101670 93
2009-06-15 07:18:47 51°18.523 2°40.963 6.2 336 15.5 101670 93
2009-06-15 07:18:52 51°18.534 2°40.945 5.2 280 15.5 101670 93
2009-06-15 07:18:57 51°18.545 2°40.925 5.4 334 15.5 101670 93
2009-06-15 07:19:02 51°18.556 2°40.906 5.8 280 15.5 101670 93
2009-06-15 07:19:06 51°18.565 2°40.89 5.5 334 15.5 101670 93
2009-06-15 07:19:12 51°18.578 2°40.867 5.3 285 15.5 101670 93
2009-06-15 07:19:17 51°18.589 2°40.848 5.3 332 15.5 101670 93
2009-06-15 07:19:22 51°18.6 2°40.828 5.1 280 15.5 101670 93
2009-06-15 07:19:27 51°18.611 2°40.808 6.3 334 15.5 101670 93
2009-06-15 07:19:32 51°18.622 2°40.788 5.6 332 15.5 101670 93
2009-06-15 07:19:37 51°18.633 2°40.769 5.9 334 15.5 101670 93
2009-06-15 07:19:42 51°18.644 2°40.749 3.3 278 15.5 101670 93
2009-06-15 07:19:46 51°18.653 2°40.734 5.6 332 15.5 101670 93
2009-06-15 07:19:52 51°18.667 2°40.71 5.2 333 15.5 101670 93
2009-06-15 07:19:57 51°18.678 2°40.691 5 334 15.5 101670 93
2009-06-15 07:20:02 51°18.689 2°40.671 5.6 282 15.5 101660 93
2009-06-15 07:20:06 51°18.698 2°40.656 5 334 15.5 101660 93
2009-06-15 07:20:12 51°18.711 2°40.632 5 283 15.5 101660 93
2009-06-15 07:20:17 51°18.722 2°40.613 4.8 334 15.5 101660 93
2009-06-15 07:20:22 51°18.733 2°40.593 4.7 280 15.5 101660 93
2009-06-15 07:20:26 51°18.741 2°40.578 5.4 335 15.5 101660 93
2009-06-15 07:20:32 51°18.755 2°40.556 5.5 337 15.5 101660 93
2009-06-15 07:20:37 51°18.766 2°40.537 4.9 336 15.5 101660 93
2009-06-15 07:20:42 51°18.777 2°40.517 4.6 283 15.5 101660 93
2009-06-15 07:20:47 51°18.788 2°40.498 4.6 334 15.5 101660 93
2009-06-15 07:20:52 51°18.798 2°40.478 5.3 283 15.5 101660 93
2009-06-15 07:20:57 51°18.809 2°40.458 4.7 335 15.5 101660 93
2009-06-15 07:21:02 51°18.819 2°40.438 5.1 334 15.5 101660 93
2009-06-15 07:21:07 51°18.829 2°40.417 5.1 335 15.5 101660 93
2009-06-15 07:21:12 51°18.839 2°40.397 5.2 284 15.5 101660 93
2009-06-15 07:21:17 51°18.85 2°40.377 5.3 335 15.5 101660 93
2009-06-15 07:21:22 51°18.86 2°40.356 5.4 335 15.5 101650 93
2009-06-15 07:21:26 51°18.869 2°40.34 5.2 336 15.5 101650 93
2009-06-15 07:21:32 51°18.881 2°40.315 4.6 336 15.5 101660 93
2009-06-15 07:21:37 51°18.891 2°40.295 4.5 337 15.5 101660 93
2009-06-15 07:21:42 51°18.902 2°40.274 4.7 282 15.5 101650 93
2009-06-15 07:21:46 51°18.91 2°40.258 5.1 333 15.5 101650 93
2009-06-15 07:21:52 51°18.921 2°40.232 4.7 280 15.5 101650 94
2009-06-15 07:21:57 51°18.931 2°40.211 4.9 335 15.5 101650 94
2009-06-15 07:22:02 51°18.941 2°40.188 4.6 281 15.5 101650 93
2009-06-15 07:22:07 51°18.95 2°40.167 5 336 15.5 101650 93
2009-06-15 07:22:12 51°18.959 2°40.145 4.2 286 15.5 101650 93
2009-06-15 07:22:17 51°18.967 2°40.122 4.9 336 15.5 101650 93
2009-06-15 07:22:22 51°18.977 2°40.1 4.8 278 15.5 101650 93
2009-06-15 07:22:27 51°18.985 2°40.077 4.9 336 15.5 101650 93
2009-06-15 07:22:32 51°18.995 2°40.055 4.2 334 15.5 101650 93
2009-06-15 07:22:37 51°19.003 2°40.033 4 333 15.5 101650 93
2009-06-15 07:22:42 51°19.012 2°40.01 4.2 282 15.5 101650 93
2009-06-15 07:22:47 51°19.021 2°39.988 3.9 335 15.5 101650 93
2009-06-15 07:22:52 51°19.029 2°39.965 4.9 337 15.5 101650 93
2009-06-15 07:22:57 51°19.037 2°39.942 4.5 334 15.5 101650 93
2009-06-15 07:23:02 51°19.045 2°39.919 4.4 283 15.5 101640 93
2009-06-15 07:23:07 51°19.053 2°39.896 4.6 334 15.5 101640 93
2009-06-15 07:23:12 51°19.061 2°39.872 4.3 279 15.5 101640 93
2009-06-15 07:23:17 51°19.068 2°39.849 4.3 335 15.5 101640 93
2009-06-15 07:23:22 51°19.076 2°39.826 4.6 335 15.5 101640 93
2009-06-15 07:23:27 51°19.084 2°39.802 4 337 15.5 101640 93
2009-06-15 07:23:32 51°19.092 2°39.779 3.7 335 15.5 101640 93
2009-06-15 07:23:37 51°19.1 2°39.756 3.8 333 15.5 101640 93
2009-06-15 07:23:42 51°19.108 2°39.732 4 335 15.5 101640 93
2009-06-15 07:23:47 51°19.116 2°39.709 4.3 334 15.5 101640 93
2009-06-15 07:23:52 51°19.124 2°39.686 4.2 285 15.4 101640 93
2009-06-15 07:23:57 51°19.132 2°39.662 3.8 334 15.4 101640 93
2009-06-15 07:24:02 51°19.14 2°39.639 4 280 15.5 101640 93
2009-06-15 07:24:07 51°19.148 2°39.616 3.9 335 15.5 101640 93
2009-06-15 07:24:12 51°19.156 2°39.593 4.3 279 15.4 101640 93
2009-06-15 07:24:17 51°19.164 2°39.569 4.2 335 15.4 101640 93
2009-06-15 07:24:22 51°19.172 2°39.546 3.9 284 15.5 101640 93
2009-06-15 07:24:27 51°19.18 2°39.522 3.8 333 15.5 101640 93
2009-06-15 07:24:32 51°19.188 2°39.499 4.4 333 15.5 101630 94
2009-06-15 07:24:37 51°19.196 2°39.476 3.9 334 15.5 101630 94
2009-06-15 07:24:42 51°19.204 2°39.452 4.4 284 15.4 101630 94
2009-06-15 07:24:47 51°19.213 2°39.429 4 333 15.4 101630 94
2009-06-15 07:24:52 51°19.221 2°39.406 3.9 280 15.5 101630 94
2009-06-15 07:24:57 51°19.229 2°39.383 4.2 337 15.5 101630 94
2009-06-15 07:25:02 51°19.237 2°39.36 3.9 278 15.5 101630 93
2009-06-15 07:25:07 51°19.245 2°39.337 4.5 336 15.5 101630 93
2009-06-15 07:25:12 51°19.254 2°39.314 3.9 280 15.5 101630 93
2009-06-15 07:25:17 51°19.262 2°39.291 4.1 335 15.5 101630 93
2009-06-15 07:25:22 51°19.27 2°39.267 4.6 277 15.5 101630 93
2009-06-15 07:25:27 51°19.279 2°39.244 4.1 334 15.5 101630 93
2009-06-15 07:25:32 51°19.287 2°39.221 4.8 335 15.5 101630 93
2009-06-15 07:25:37 51°19.295 2°39.198 4.8 335 15.5 101630 93
2009-06-15 07:25:42 51°19.304 2°39.175 4.2 335 15.5 101630 93
2009-06-15 07:25:47 51°19.313 2°39.152 4.7 333 15.5 101630 93
2009-06-15 07:25:52 51°19.321 2°39.129 4.8 282 15.5 101630 93
2009-06-15 07:25:57 51°19.33 2°39.105 4.3 334 15.5 101630 93
2009-06-15 07:26:02 51°19.338 2°39.082 4.3 280 15.4 101630 93
2009-06-15 07:26:06 51°19.345 2°39.064 5.2 334 15.4 101630 93
2009-06-15 07:26:12 51°19.356 2°39.036 4.6 279 15.5 101630 93
2009-06-15 07:26:17 51°19.364 2°39.013 5.1 336 15.5 101630 93
2009-06-15 07:26:22 51°19.373 2°38.99 4.5 278 15.5 101630 93
2009-06-15 07:26:27 51°19.382 2°38.967 4.5 336 15.5 101630 93
2009-06-15 07:26:32 51°19.39 2°38.944 4.6 335 15.5 101630 93
2009-06-15 07:26:37 51°19.398 2°38.92 5.4 337 15.5 101630 93
2009-06-15 07:26:42 51°19.407 2°38.897 4.8 284 15.5 101630 93
2009-06-15 07:26:47 51°19.415 2°38.874 4.7 337 15.5 101630 93
2009-06-15 07:26:52 51°19.423 2°38.85 4.8 335 15.5 101630 93
2009-06-15 07:26:57 51°19.431 2°38.827 4.8 337 15.5 101630 93
2009-06-15 07:27:02 51°19.44 2°38.804 5.3 285 15.5 101630 93
2009-06-15 07:27:07 51°19.448 2°38.78 4.8 337 15.5 101630 93
2009-06-15 07:27:12 51°19.456 2°38.757 5.5 286 15.5 101630 93
2009-06-15 07:27:17 51°19.464 2°38.733 5.5 338 15.5 101630 93
2009-06-15 07:27:22 51°19.472 2°38.709 5.5 285 15.4 101630 93
2009-06-15 07:27:26 51°19.478 2°38.69 5.8 337 15.4 101630 93
2009-06-15 07:27:32 51°19.488 2°38.662 4.8 338 15.5 101640 93
2009-06-15 07:27:37 51°19.497 2°38.638 4.9 339 15.5 101640 93
2009-06-15 07:27:42 51°19.505 2°38.615 5.9 279 15.5 101640 93
2009-06-15 07:27:46 51°19.512 2°38.596 5 338 15.5 101640 93
2009-06-15 07:27:52 51°19.522 2°38.568 5.1 284 15.5 101630 93
2009-06-15 07:27:57 51°19.531 2°38.544 5.2 339 15.5 101630 93
2009-06-15 07:28:02 51°19.54 2°38.521 5.8 338 15.4 101630 93
2009-06-15 07:28:07 51°19.548 2°38.497 5.8 338 15.4 101630 93
2009-06-15 07:28:12 51°19.556 2°38.473 5 280 15.4 101630 93
2009-06-15 07:28:17 51°19.564 2°38.449 5.1 339 15.4 101630 93
2009-06-15 07:28:22 51°19.573 2°38.425 5.7 278 15.4 101630 93
2009-06-15 07:28:27 51°19.581 2°38.401 5.6 339 15.4 101630 93
2009-06-15 07:28:32 51°19.589 2°38.377 4.9 339 15.5 101630 93
2009-06-15 07:28:37 51°19.597 2°38.353 4.8 339 15.5 101630 93
2009-06-15 07:28:42 51°19.605 2°38.329 5.6 279 15.5 101640 93
2009-06-15 07:28:47 51°19.613 2°38.305 4.8 339 15.5 101640 93
2009-06-15 07:28:52 51°19.621 2°38.281 5.6 340 15.4 101640 93
2009-06-15 07:28:57 51°19.63 2°38.257 5.4 339 15.4 101640 93
2009-06-15 07:29:02 51°19.638 2°38.233 4.9 279 15.4 101630 93
2009-06-15 07:29:07 51°19.646 2°38.209 5.4 341 15.4 101630 93
2009-06-15 07:29:12 51°19.655 2°38.185 5 280 15.4 101640 93
2009-06-15 07:29:17 51°19.663 2°38.162 5.5 340 15.4 101640 93
2009-06-15 07:29:22 51°19.671 2°38.138 5.4 279 15.4 101630 93
2009-06-15 07:29:27 51°19.68 2°38.114 5 340 15.4 101630 93
2009-06-15 07:29:32 51°19.688 2°38.09 5.6 340 15.4 101630 93
2009-06-15 07:29:37 51°19.697 2°38.066 5.6 339 15.4 101630 93
2009-06-15 07:29:42 51°19.705 2°38.042 4.8 280 15.4 101630 93
2009-06-15 07:29:47 51°19.713 2°38.018 5.5 338 15.4 101630 93
2009-06-15 07:29:52 51°19.721 2°37.993 5.3 280 15.5 101640 93
2009-06-15 07:29:57 51°19.729 2°37.969 4.7 340 15.5 101640 93
2009-06-15 07:30:02 51°19.737 2°37.945 4.7 338 15.5 101630 93
2009-06-15 07:30:07 51°19.744 2°37.921 4.6 337 15.5 101630 93
2009-06-15 07:30:12 51°19.752 2°37.897 5.3 287 15.5 101640 93
2009-06-15 07:30:17 51°19.76 2°37.873 4.9 339 15.5 101640 93
2009-06-15 07:30:22 51°19.768 2°37.85 4.9 336 15.5 101640 93
2009-06-15 07:30:27 51°19.776 2°37.826 4.8 337 15.5 101640 93
2009-06-15 07:30:32 51°19.784 2°37.802 5.4 337 15.5 101640 93
2009-06-15 07:30:37 51°19.792 2°37.778 5.7 337 15.5 101640 93
2009-06-15 07:30:42 51°19.8 2°37.755 4.9 337 15.5 101640 93
2009-06-15 07:30:47 51°19.808 2°37.731 5.6 337 15.5 101640 93
2009-06-15 07:30:52 51°19.815 2°37.707 5.1 282 15.5 101640 93
2009-06-15 07:30:57 51°19.823 2°37.684 5.8 335 15.5 101640 93
2009-06-15 07:31:02 51°19.831 2°37.661 5.3 279 15.5 101640 93
2009-06-15 07:31:07 51°19.838 2°37.639 5.4 336 15.5 101640 93
2009-06-15 07:31:12 51°19.844 2°37.618 5.2 285 15.5 101640 93
2009-06-15 07:31:17 51°19.851 2°37.597 4.7 336 15.5 101640 93
2009-06-15 07:31:22 51°19.857 2°37.578 4.5 286 15.5 101640 93
2009-06-15 07:31:27 51°19.863 2°37.559 4.7 336 15.5 101640 93
2009-06-15 07:31:32 51°19.87 2°37.54 4.4 334 15.5 101650 93
2009-06-15 07:31:37 51°19.876 2°37.522 4.3 336 15.5 101650 93
2009-06-15 07:31:42 51°19.881 2°37.505 4.2 280 15.5 101640 93
2009-06-15 07:31:47 51°19.887 2°37.489 3.6 333 15.5 101640 93
2009-06-15 07:31:52 51°19.892 2°37.475 3.4 278 15.5 101650 93
2009-06-15 07:31:57 51°19.897 2°37.461 3.1 336 15.5 101650 93
2009-06-15 07:32:02 51°19.902 2°37.448 3.2 284 15.5 101650 93
2009-06-15 07:32:07 51°19.906 2°37.436 3 334 15.5 101650 93
2009-06-15 07:32:12 51°19.91 2°37.424 2.5 279 15.5 101650 93
2009-06-15 07:32:17 51°19.914 2°37.412 2.8 331 15.5 101650 93
2009-06-15 07:32:22 51°19.918 2°37.401 2.7 333 15.5 101650 93
2009-06-15 07:32:27 51°19.921 2°37.391 2.2 330 15.5 101650 93
2009-06-15 07:32:32 51°19.924 2°37.381 2.8 333 15.5 101650 93
2009-06-15 07:32:37 51°19.927 2°37.371 2.3 333 15.5 101650 93
2009-06-15 07:32:42 51°19.93 2°37.361 2.3 278 15.5 101650 93
2009-06-15 07:32:47 51°19.932 2°37.352 2 332 15.5 101650 93
2009-06-15 07:32:52 51°19.935 2°37.343 2 284 15.5 101650 93
2009-06-15 07:32:57 51°19.937 2°37.334 1.8 330 15.5 101650 93
2009-06-15 07:33:02 51°19.938 2°37.326 2.1 278 15.5 101650 93
2009-06-15 07:33:07 51°19.94 2°37.317 1.8 331 15.5 101650 93
2009-06-15 07:33:12 51°19.942 2°37.309 2.1 287 15.5 101660 93
2009-06-15 07:33:17 51°19.944 2°37.301 1.9 329 15.5 101660 93
2009-06-15 07:33:22 51°19.945 2°37.293 2 283 15.5 101650 93
2009-06-15 07:33:27 51°19.947 2°37.286 2 327 15.5 101650 93
2009-06-15 07:33:32 51°19.948 2°37.278 1.6 329 15.5 101650 93
2009-06-15 07:33:37 51°19.949 2°37.271 1.7 331 15.5 101650 93
2009-06-15 07:33:42 51°19.951 2°37.264 1.9 284 15.5 101650 93
2009-06-15 07:33:47 51°19.952 2°37.257 1.8 329 15.5 101650 93
2009-06-15 07:33:52 51°19.953 2°37.249 1.8 281 15.5 101650 93
2009-06-15 07:33:57 51°19.955 2°37.242 1.9 328 15.5 101650 93
2009-06-15 07:34:02 51°19.956 2°37.236 1.6 282 15.5 101650 93
2009-06-15 07:34:07 51°19.957 2°37.229 1.8 325 15.5 101650 93
2009-06-15 07:34:12 51°19.958 2°37.222 1.7 285 15.5 101660 93
2009-06-15 07:34:17 51°19.96 2°37.215 1.8 324 15.5 101660 93
2009-06-15 07:34:22 51°19.961 2°37.209 1.8 281 15.5 101650 93
2009-06-15 07:34:27 51°19.962 2°37.202 1.5 325 15.5 101650 93
2009-06-15 07:34:32 51°19.964 2°37.196 1.7 325 15.5 101660 93
2009-06-15 07:34:37 51°19.965 2°37.189 1.6 325 15.5 101660 93
2009-06-15 07:34:42 51°19.967 2°37.182 2 281 15.5 101650 93
2009-06-15 07:34:47 51°19.968 2°37.175 2.1 325 15.5 101650 93
2009-06-15 07:34:52 51°19.97 2°37.168 1.9 285 15.5 101650 93
2009-06-15 07:34:57 51°19.972 2°37.161 2.2 325 15.5 101650 93
2009-06-15 07:35:02 51°19.974 2°37.153 2.3 279 15.5 101650 93
2009-06-15 07:35:07 51°19.976 2°37.146 2 327 15.5 101650 93
2009-06-15 07:35:12 51°19.977 2°37.138 2.3 278 15.5 101660 93
2009-06-15 07:35:17 51°19.979 2°37.13 2.3 326 15.5 101660 93
2009-06-15 07:35:22 51°19.981 2°37.122 2.2 278 15.5 101650 93
2009-06-15 07:35:27 51°19.983 2°37.115 1.9 326 15.5 101650 93
2009-06-15 07:35:32 51°19.985 2°37.107 2 327 15.5 101650 93
2009-06-15 07:35:37 51°19.987 2°37.099 2.4 325 15.5 101650 93
2009-06-15 07:35:42 51°19.989 2°37.091 2 282 15.5 101650 93
2009-06-15 07:35:47 51°19.991 2°37.083 2 326 15.5 101650 93
2009-06-15 07:35:52 51°19.993 2°37.075 1.9 285 15.5 101660 93
2009-06-15 07:35:57 51°19.994 2°37.067 2 329 15.5 101660 93
2009-06-15 07:36:02 51°19.996 2°37.06 2 280 15.5 101650 93
2009-06-15 07:36:07 51°19.998 2°37.052 2.5 327 15.5 101650 93
2009-06-15 07:36:12 51°20 2°37.044 2.1 327 15.6 101650 93
2009-06-15 07:36:17 51°20.001 2°37.037 2.5 329 15.6 101650 93
2009-06-15 07:36:22 51°20.003 2°37.029 2 280 15.5 101650 93
2009-06-15 07:36:27 51°20.005 2°37.022 1.9 330 15.5 101650 93
2009-06-15 07:36:32 51°20.007 2°37.014 1.9 330 15.5 101650 93
2009-06-15 07:36:37 51°20.009 2°37.007 1.9 332 15.5 101650 93
2009-06-15 07:36:42 51°20.011 2°36.999 2.2 279 15.5 101650 93
2009-06-15 07:36:47 51°20.013 2°36.992 1.8 330 15.5 101650 93
2009-06-15 07:36:52 51°20.015 2°36.985 2.1 277 15.5 101650 93
2009-06-15 07:36:57 51°20.017 2°36.978 2.1 330 15.5 101650 93